PST,Max TemperatureF,Mean TemperatureF,Min TemperatureF,Max Dew PointF,MeanDew PointF,Min DewpointF,Max Humidity, Mean Humidity, Min Humidity, Max Sea Level PressureIn, Mean Sea Level PressureIn, Min Sea Level PressureIn, Max VisibilityMiles, Mean VisibilityMiles, Min VisibilityMiles, Max Wind SpeedMPH, Mean Wind SpeedMPH, Max Gust SpeedMPH,PrecipitationIn, CloudCover, Events, WindDirDegrees
2012-12-1,65,60,55,59,57,54,100,92,82,30.05,29.98,29.92,10,9,4,23,15,29,0.01,7,Rain,148
2012-12-2,63,59,55,58,53,44,100,90,61,30.10,29.93,29.81,10,7,0,30,14,40,1.23,6,Fog-Rain,225
2012-12-3,61,50,39,50,46,41,100,84,60,30.20,30.16,30.09,10,10,7,7,3,15,0.00,0,,46
2012-12-4,61,55,49,54,52,48,100,89,75,30.23,30.19,30.16,10,6,3,12,5,15,0.00,4,Rain,133
2012-12-5,58,56,54,57,55,51,100,97,81,30.18,30.13,30.10,6,3,1,17,7,24,0.59,8,Rain,59
2012-12-6,59,57,54,55,52,48,100,91,74,30.12,30.09,30.06,10,8,4,14,7,16,0.00,7,,320
2012-12-7,60,52,43,48,45,41,100,88,52,30.15,30.09,30.06,10,7,0,10,4,12,0.00,1,Fog,320
2012-12-8,53,47,41,47,44,40,100,96,66,30.12,30.08,30.03,10,3,0,9,3,13,0.00,4,Fog,308
2012-12-9,61,48,35,45,40,34,100,87,49,30.20,30.13,30.09,10,5,0,10,2,13,0.00,0,Fog-Snow,92
2012-12-10,61,50,38,48,44,39,100,91,55,30.25,30.18,30.12,8,3,0,7,4,29,0.00,0,Fog,124
2012-12-11,63,52,41,49,45,41,100,87,60,30.11,29.98,29.84,10,4,1,14,7,17,0.00,1,,147
2012-12-12,57,52,47,48,45,39,100,88,55,29.89,29.85,29.82,10,8,2,16,5,22,0.14,7,Rain,184
2012-12-13,53,45,36,45,39,34,100,93,68,29.93,29.89,29.85,10,6,0,14,3,18,0.00,4,Fog,248
2012-12-14,51,42,32,41,37,32,89,74,59,30.02,29.92,29.83,10,8,0,7,3,10,0.00,3,Fog,132
2012-12-15,48,39,30,43,35,30,100,90,80,30.11,30.06,30.02,10,3,0,9,2,12,0.04,5,Fog-Rain,139
2012-12-16,54,47,39,46,42,37,100,80,59,30.13,30.08,30.03,10,6,2,15,9,18,0.00,7,Rain,130
2012-12-17,55,53,50,53,49,43,100,89,77,30.05,30.01,29.95,10,6,2,22,13,28,0.20,7,Rain,174
2012-12-18,53,47,40,43,35,29,92,68,44,30.16,30.02,29.95,10,10,10,21,11,24,0.00,3,,304
2012-12-19,51,41,31,32,29,26,85,62,38,30.33,30.26,30.16,10,10,10,13,6,15,0.00,0,,120
2012-12-20,55,44,33,35,32,29,89,62,35,30.23,30.13,30.03,10,9,5,21,9,24,0.00,0,,136
2012-12-21,55,47,39,41,35,29,76,67,57,30.01,29.95,29.90,10,9,2,20,12,25,0.26,5,Rain-Hail,135
2012-12-22,53,50,46,48,46,41,100,82,64,30.11,29.98,29.87,10,9,3,26,16,36,0.59,6,Rain,154
2012-12-23,53,51,48,49,47,46,93,88,83,30.11,29.99,29.90,10,8,2,38,16,46,0.49,7,Rain,154
2012-12-24,50,44,38,46,42,37,100,93,86,30.20,30.14,30.00,10,8,1,14,4,16,0.00,2,,286
2012-12-25,47,41,35,45,41,35,100,96,92,30.16,30.03,29.82,10,4,0,17,8,24,0.15,7,Fog-Rain,131
2012-12-26,54,48,42,47,44,39,100,86,71,30.08,29.95,29.87,10,7,4,18,7,22,0.03,5,Rain,203
2012-12-27,51,44,36,45,39,34,100,87,74,30.17,30.12,30.08,10,4,0,15,3,17,0.00,2,Fog,333
2012-12-28,46,40,33,42,38,33,100,91,82,30.20,30.14,30.06,10,5,0,12,5,17,0.00,5,Fog,114
2012-12-29,52,46,40,42,40,35,100,82,63,30.07,30.04,30.02,10,8,4,9,4,12,T,5,,288
2012-12-30,52,42,32,41,35,32,100,80,59,30.14,30.06,30.04,10,6,1,17,4,21,0.00,1,,302
2012-12-31,49,39,29,37,32,28,92,74,56,30.30,30.25,30.16,10,10,10,16,6,22,0.00,0,,274